Terminal Aerodrome Forecast
Issued by NWS Mt. Holly, NJ

Home | Current Version | Previous Version | Text Only | Print | Product List | Glossary On
Versions: 1 2 3 4 5 6 7 8 9 10 11 12 13 14 15 16 17 18 19 20 21 22
000
FTUS41 KPHI 222300 RRA
TAFILG
TAF
KILG 222346Z 2300/2324 33015G24KT 6SM -RA BR SCT015 OVC035
     FM230300 32016G25KT 6SM -RA BR SCT015 OVC025
     FM231400 33017G30KT P6SM BKN025 OVC035
     FM231700 32015G30KT P6SM SCT025 OVC035=

USA.gov is the U.S. government's official web portal to all federal, state and local government web resources and services.